Terminal Aerodrome Forecast
Issued by NWS

Home | Current Version | Previous Version | Text Only | Print | Product List | Glossary On
Versions: 1 2 3 4 5 6 7 8 9 10 11 12 13 14 15 16 17 18 19 20 21 22 23 24 25
425
FTUS43 KGRR 270615 AAA
TAFAZO
TAF AMD
KAZO 270615Z 2706/2806 28006KT P6SM OVC006
     FM270900 22004KT 2SM BR OVC008
     FM271500 24005KT 2SM BR OVC015
     FM271800 26005KT P6SM OVC050
     FM280000 34004KT 4SM BR OVC025
     FM280300 36004KT 1 1/2SM -SHRA BR OVC015=

USA.gov is the U.S. government's official web portal to all federal, state and local government web resources and services.